Home   Weather   Boa Vista   Past weeks

Flag for Brazil Past Weather in Boa Vista, Roraima, Brazil — Yesterday and Last 2 Weeks

79 °F

Broken clouds.

Feels Like: 82 °F
Forecast: 76 / 88 °F
Wind: 3 mph from Southwest

Location: Boa Vista Aeropor-To

Current Time: Oct 23, 2016 at 10:30:57 AM

Latest Report: Oct 23, 2016 at 10:00 AM

Visibility: N/A

Pressure: 29.95 "Hg

Humidity: 79%

Dew Point: 72 °F

Location of Boa VistaLocation

Past Weather in Boa Vista — Graph


Boa Vista Temperature Yesterday

Maximum temperature yesterday: 93 °F (at 1:00 PM)
Minimum temperature yesterday: 81 °F (at 6:00 AM)
Average temperature yesterday: 87 °F

High & Low Weather Summary for the Past Weeks

High99 °F (Oct 21, 2:00 PM)100% (Oct 22, 8:00 PM)29.98 "Hg (Oct 22, 8:00 PM)
Low73 °F (Oct 23, 1:00 AM)18% (Oct 9, 2:00 PM)29.68 "Hg (Oct 8, 3:00 PM)
Average88 °F60%29.82 "Hg
* Reported Oct 8 8:00 AM — Oct 23 8:00 AM, Boa Vista, Weather by CustomWeather, © 2016

Note: Actual official high and low records may vary slightly from our data, if they occured in-between our weather recording intervals... More about our weather records


Boa Vista Weather History for the Previous 24 Hours

Scroll right to see more
Time TempWeatherWind HumidityBarometerVisibility
8:00 AM
Sun, Oct 23
75 °FDrizzle. Broken clouds.3 mph94%29.95 "HgN/A
7:00 AM75 °FLight rain. Partly sunny.3 mph89%29.95 "HgN/A
6:00 AM75 °FScattered clouds.5 mph89%29.92 "HgN/A
5:00 AM75 °FPassing clouds.7 mph89%29.89 "HgN/A
4:00 AM73 °FPassing clouds.5 mph94%29.86 "HgN/A
3:00 AM73 °FThunderstorms. Passing clouds.9 mph94%29.89 "Hg2 mi
2:00 AM73 °FThunderstorms. Passing clouds.5 mph94%29.89 "Hg2 mi
1:00 AM73 °FStrong thunderstorms. Passing clouds.5 mph89%N/A1 mi
12:00 AM79 °FThunderstorms. Passing clouds.8 mph74%29.89 "HgN/A
11:00 PM
Sat, Oct 22
81 °FThunderstorms. Passing clouds.1 mph79%29.89 "HgN/A
10:00 PM82 °FThunderstorms. Passing clouds.3 mph70%29.86 "HgN/A
9:00 PM82 °FPassing clouds.8 mph74%29.83 "HgN/A
8:00 PM84 °FPassing clouds.10 mph100%29.80 "HgN/A
7:00 PM88 °FPassing clouds.8 mph62%29.77 "HgN/A
6:00 PM90 °FScattered showers. Passing clouds.6 mph59%N/AN/A
5:00 PM90 °FScattered showers. Partly sunny.7 mph59%29.74 "HgN/A
4:00 PM91 °FScattered showers. Partly sunny.12 mph52%29.74 "HgN/A
3:00 PM91 °FScattered showers. Partly sunny.12 mph56%29.74 "HgN/A
2:00 PM93 °FPartly sunny.6 mph47%29.77 "HgN/A
1:00 PM93 °FPartly sunny.6 mph49%29.77 "HgN/A
12:00 PM91 °FBroken clouds.5 mph52%29.83 "HgN/A
11:00 AM90 °FBroken clouds.9 mph55%29.89 "HgN/A
10:00 AM91 °FBroken clouds.13 mph52%29.89 "HgN/A
Weather by CustomWeather, © 2016

See weather overviewHow to use our weather pages